Flag for U.S.A. Weather past 2 weeks in Woodstock, New York, U.S.A.

Now
74 °F

Broken clouds.


Feels Like: 77 °F
Forecast: 61 / 68 °F
Wind: 7 mph from Southeast

Location: Dutchess County Airport

Current Time: Aug 21, 2014 at 8:15:49 PM

Latest Report: Aug 21, 2014 at 7:53 PM


Visibility: 10 mi

Pressure: 29.99 "Hg

Humidity: 62%

Dew point: 60 °F

Location of WoodstockLocation

Historic Weather in Woodstock — Graph

°F

Woodstock temperature yesterday

Maximum temperature yesterday: 84 °F (at 4:53 PM)
Minimum temperature yesterday: 62 °F (at 12:53 AM)
Average temperature yesterday: 73 °F

Past Weeks' High & Low Weather Summary

 TemperatureHumidityPressure
High86 °F (Aug 10, 3:53 PM)97% (Aug 15, 12:53 AM)30.15 "Hg (Aug 15, 12:53 AM)
Low51 °F (Aug 19, 5:53 AM)36% (Aug 9, 3:53 PM)29.63 "Hg (Aug 13, 4:53 PM)
Average69 °F71%29.94 "Hg
* Reported Aug 6 6:53 PM — Aug 21 6:53 PM, Woodstock, Weather by CustomWeather, © 2014

Note: Actual official high and low records may vary slightly from our data, if they occured in-between our weather recording intervals... More about our weather records

Advertising

Woodstock weather history for previous 24 hours

 ConditionsComfort  
Time TempWeatherWind HumidityBarometerVisibility
6:53 PM
Aug 21
75 °FSunny.7 mph66%29.98 "Hg10 mi
5:53 PM77 °FPartly sunny.6 mph64%29.98 "Hg10 mi
4:53 PM79 °FPartly sunny.7 mph65%29.97 "Hg10 mi
3:53 PM79 °FOvercast.7 mph62%29.98 "Hg10 mi
2:53 PM79 °FBroken clouds.5 mph60%29.99 "Hg10 mi
1:53 PM77 °FOvercast.6 mph62%30.01 "Hg10 mi
12:53 PM77 °FOvercast.12 mph58%30.02 "Hg10 mi
11:53 AM74 °FPartly sunny.6 mph71%30.02 "Hg10 mi
10:53 AM73 °FMostly cloudy.5 mph76%30.04 "Hg10 mi
9:53 AM71 °FMostly cloudy.3 mph84%30.04 "Hg10 mi
9:02 AM70 °FPartly sunny.3 mph84%30.05 "Hg10 mi
8:53 AM69 °FPartly sunny.No wind87%30.04 "Hg10 mi
7:53 AM66 °FOvercast.3 mph90%30.03 "Hg10 mi
6:53 AM65 °FMostly cloudy.No wind94%30.03 "Hg10 mi
5:53 AM65 °FOvercast.3 mph91%30.01 "Hg10 mi
4:53 AM65 °FLight rain. Overcast.5 mph91%30.01 "Hg8 mi
3:53 AM68 °FLight rain. Mostly cloudy.5 mph76%30.01 "Hg10 mi
2:53 AM69 °FOvercast.3 mph76%30.01 "Hg10 mi
1:53 AM69 °FPassing clouds.No wind73%30.01 "Hg10 mi
12:53 AM72 °FPassing clouds.No wind61%30.01 "Hg10 mi
11:53 PM
Aug 20
73 °FMostly cloudy.5 mph59%30.00 "Hg10 mi
10:53 PM73 °FClear.6 mph64%29.98 "Hg10 mi
9:53 PM75 °FPassing clouds.6 mph62%29.98 "Hg10 mi
8:53 PM75 °FOvercast.6 mph69%29.97 "Hg10 mi
Weather by CustomWeather, © 2014

See weather overviewHow to use our weather pages